Вернуться в каталог

SL-16 DEB

АктивенSSO
NORAD 25863·DEBRIS·🇷🇺 Russia

Запущен Jul 17, 1999 с Baikonur Cosmodrome

Loading…

Ближайшие Пролёты (ближайшие 24 часа)

TLE

СвежийSource: Space-Track

Эпоха: Sep 14, 2026, 03:14 UTC

1 25863U 99039D   26257.13516507  .00000331  00000-0  92690-4 0  9991
2 25863  98.3571 326.6892 0145832 291.9356  96.2056 14.46865621427962

Отслеживайте SL-16 DEB в реальном времени с AllMySat

Download on the App Store